Montgomery, NY

11:34 AM EDT on October 23, 2017 (GMT -0400)
Orange County

Weather History for KMGJ - July, 2013

Change the Weather History Date:

Tuesday, July 23, 2013

  Actual Average (KSWF) Record (KSWF)
Temperature  
Mean Temperature 78 °F -  
Max Temperature 88 °F 80 °F 96 °F (1999)
Min Temperature 69 °F 60 °F 46 °F (1981)
Cooling Degree Days 14    
Growing Degree Days 28 (Base 50)    
Moisture  
Dew Point 71 °F    
Average Humidity 86    
Maximum Humidity 96    
Minimum Humidity 55    
Precipitation  
Precipitation 0.48 in - - ()
Sea Level Pressure  
Sea Level Pressure 29.67 in    
Wind  
Wind Speed 3 mph (SW)    
Max Wind Speed 15 mph    
Max Gust Speed 20 mph    
Visibility 8 miles    
Events Rain    
Averages and records for this station are not official NWS values.
T = Trace of Precipitation, MM = Missing Value Source: NWS Daily Summary

Daily Weather History Graph

Daily Weather History Graph

Search for Another Location

Airport or City:

Trip Planner

Search our weather history database for the weather conditions in past years. The results will help you decide how hot, cold, wet, or windy it might be!

Date:

Astronomy

Jul. 23, 2013 Rise Set
Actual Time 5:43 AM EDT 8:23 PM EDT
Civil Twilight 5:11 AM EDT 8:55 PM EDT
Nautical Twilight 4:30 AM EDT 9:35 PM EDT
Astronomical Twilight 3:45 AM EDT 10:20 PM EDT
Moon 8:47 PM EDT 6:50 AM EDT
Length of Visible Light 15h 43m
Length of Day
14h 39m
Full, 99% of the Moon is Illuminated
Jul 23
Full
Jul 29
Last Quarter
Aug 6
New
Aug 14
First Quarter
Aug 20
Full

Hourly Weather History & Observations

Time (EDT) Temp. Heat Index Dew Point Humidity Pressure Visibility Wind Dir Wind Speed Gust Speed Precip Events Conditions
12:09 AM 73.4 °F - 71.6 °F 94% 29.80 in 3.0 mi Calm Calm - 0.01 in Rain Light Rain
12:19 AM 73.4 °F - 71.6 °F 94% 29.80 in 1.8 mi SE 3.5 mph - 0.08 in Rain Heavy Rain
12:28 AM 73.4 °F - 71.6 °F 94% 29.79 in 2.0 mi SSE 4.6 mph - 0.11 in Rain Rain
12:32 AM 73.4 °F - 71.6 °F 94% 29.80 in 4.0 mi South 3.5 mph - 0.12 in Rain Rain
12:50 AM 73.4 °F - 71.6 °F 94% 29.79 in 6.0 mi Calm Calm - 0.12 in Rain Light Rain
12:54 AM 73.0 °F - 72.0 °F 96% 29.78 in 6.0 mi Calm Calm - 0.12 in Rain Light Rain
1:10 AM 73.4 °F - 71.6 °F 94% 29.78 in 6.0 mi Calm Calm - 0.01 in Rain Light Rain
1:45 AM 73.4 °F - 71.6 °F 94% 29.77 in 7.0 mi Calm Calm - 0.02 in Rain Light Rain
1:54 AM 73.9 °F - 72.0 °F 93% 29.76 in 6.0 mi Calm Calm - 0.02 in Rain Light Rain
2:25 AM 73.4 °F - 71.6 °F 94% 29.75 in 5.0 mi Calm Calm - 0.02 in Rain Light Rain
2:49 AM 73.4 °F - 71.6 °F 94% 29.74 in 7.0 mi East 3.5 mph - 0.03 in Rain Light Rain
2:54 AM 73.0 °F - 72.0 °F 96% 29.73 in 7.0 mi Calm Calm - 0.03 in Rain Light Rain
3:21 AM 73.4 °F - 71.6 °F 94% 29.73 in 8.0 mi Calm Calm - 0.02 in Rain Light Rain
3:54 AM 73.0 °F - 72.0 °F 96% 29.70 in 5.0 mi SE 4.6 mph - 0.08 in Rain Rain
4:05 AM 73.4 °F - 71.6 °F 94% 29.71 in 5.0 mi SE 4.6 mph - 0.02 in Rain Rain
4:28 AM 73.4 °F - 71.6 °F 94% 29.70 in 10.0 mi SSE 3.5 mph - 0.03 in Rain Light Rain
4:54 AM 73.0 °F - 71.1 °F 93% 29.69 in 10.0 mi Calm Calm - 0.03 in   Mostly Cloudy
5:23 AM 73.4 °F - 71.6 °F 94% 29.69 in 10.0 mi Calm Calm - N/A   Overcast
5:54 AM 73.0 °F - 71.1 °F 93% 29.68 in 10.0 mi Calm Calm - N/A   Overcast
6:54 AM 73.0 °F - 72.0 °F 96% 29.67 in 8.0 mi Calm Calm - 0.00 in   Overcast
7:23 AM 73.4 °F - 71.6 °F 94% 29.67 in 9.0 mi Calm Calm - N/A   Overcast
7:54 AM 75.0 °F - 72.0 °F 90% 29.66 in 10.0 mi WNW 3.5 mph - N/A   Overcast
8:40 AM 77.0 °F - 73.4 °F 89% 29.65 in 10.0 mi SSW 4.6 mph - N/A   Mostly Cloudy
8:54 AM 77.0 °F - 73.0 °F 88% 29.65 in 10.0 mi SW 4.6 mph - N/A   Overcast
9:11 AM 78.8 °F - 71.6 °F 78% 29.65 in 10.0 mi SW 6.9 mph - N/A   Mostly Cloudy
9:52 AM 78.8 °F - 71.6 °F 78% 29.64 in 10.0 mi SW 6.9 mph - N/A   Scattered Clouds
9:54 AM 79.0 °F - 72.0 °F 79% 29.64 in 10.0 mi WSW 8.1 mph - N/A   Scattered Clouds
10:05 AM 78.8 °F - 71.6 °F 78% 29.64 in 10.0 mi WSW 6.9 mph - N/A   Mostly Cloudy
10:19 AM 80.6 °F 84.6 °F 71.6 °F 74% 29.64 in 10.0 mi WSW 5.8 mph - N/A   Scattered Clouds
10:31 AM 80.6 °F 84.6 °F 71.6 °F 74% 29.64 in 10.0 mi WSW 6.9 mph - N/A   Mostly Cloudy
10:54 AM 82.0 °F 86.7 °F 72.0 °F 71% 29.63 in 10.0 mi West 6.9 mph - N/A   Mostly Cloudy
11:05 AM 80.6 °F 84.6 °F 71.6 °F 74% 29.63 in 10.0 mi SW 4.6 mph - N/A   Scattered Clouds
11:54 AM 84.0 °F 88.4 °F 70.0 °F 63% 29.62 in 10.0 mi WSW 9.2 mph - N/A   Partly Cloudy
12:54 PM 86.0 °F 90.7 °F 70.0 °F 59% 29.60 in 10.0 mi Variable 6.9 mph - N/A   Partly Cloudy
1:54 PM 88.0 °F 92.9 °F 70.0 °F 55% 29.58 in 10.0 mi SSW 5.8 mph - N/A   Mostly Cloudy
2:54 PM 82.0 °F 87.9 °F 73.9 °F 76% 29.59 in 10.0 mi West 4.6 mph - 0.03 in   Scattered Clouds
3:54 PM 80.1 °F 83.8 °F 72.0 °F 76% 29.59 in 7.0 mi WNW 15.0 mph 19.6 mph 0.02 in Rain Light Rain
3:58 PM 75.2 °F - 71.6 °F 89% 29.59 in 1.0 mi NNW 6.9 mph 19.6 mph 0.14 in Rain Heavy Rain
4:07 PM 77.0 °F - 71.6 °F 83% 29.59 in 3.0 mi Calm Calm - 0.15 in Rain Light Rain
4:54 PM 81.0 °F 84.9 °F 71.1 °F 72% 29.57 in 10.0 mi SSE 5.8 mph - 0.15 in   Clear
5:54 PM 79.0 °F - 73.0 °F 82% 29.57 in 10.0 mi South 4.6 mph - N/A   Mostly Cloudy
6:54 PM 78.1 °F - 68.0 °F 71% 29.58 in 10.0 mi NNW 5.8 mph - N/A   Scattered Clouds
7:54 PM 77.0 °F - 68.0 °F 74% 29.60 in 10.0 mi Calm Calm - N/A   Overcast
8:54 PM 73.9 °F - 70.0 °F 87% 29.61 in 10.0 mi Calm Calm - N/A   Clear
9:54 PM 71.1 °F - 69.1 °F 93% 29.63 in 10.0 mi Calm Calm - N/A   Clear
10:54 PM 69.1 °F - 68.0 °F 96% 29.62 in 6.0 mi Calm Calm - N/A   Clear
11:54 PM 69.1 °F - 66.9 °F 93% 29.64 in 10.0 mi Calm Calm - N/A   Clear